Location: Zagreb
(45.8000°N, 16.0000°E)
Time: 19:18:32
(UTC+02:00)

ISS - Pass Details

Date: 05 October 2021
Orbit: 417 x 423 km, 51.6° (Epoch: 23 October)

Event Time Altitude Azimuth Distance (km) Brightness Sun altitude
Rises 20:22:35 0° 286° (WNW) 2,363 1.7 -20.6°
Reaches altitude 10° 20:25:26 10° 260° (W) 1,496 0.0 -21.1°
Maximum altitude 20:27:15 14° 227° (SW) 1,275 -1.0 -21.4°
Enters shadow 20:28:35 12° 201° (SSW) 1,395 -1.1 -21.6°
